�N����,����,�~����,�C��,���x,�C��,����,���ϕ���,�ő�u�ԕ���,�ő厞����,���˗�,�I�_���x,�n�����x,�ő啗���N��,DTYPE
"17/09/06","00:10",0.0,21.3,95.2,1004.1,279.2,0.5,1.2,232.1,0.00,20.5,23.7,"00:03:52",1
"17/09/06","00:20",0.0,21.3,95.3,1004.1,315.2,0.3,0.9,2.1,0.00,20.6,23.5,"00:15:12",1
"17/09/06","00:30",0.0,21.3,95.4,1004.3,264.9,0.5,1.2,226.4,0.00,20.6,23.6,"00:23:52",1
"17/09/06","00:40",0.0,21.3,95.4,1004.1,261.0,0.5,1.2,297.3,0.00,20.6,23.8,"00:31:44",1
"17/09/06","00:50",0.0,21.3,95.4,1003.6,303.6,0.3,0.9,229.9,0.00,20.6,23.8,"00:47:36",1
"17/09/06","01:00",0.0,21.3,95.4,1003.6,266.7,0.5,1.0,241.2,0.00,20.6,23.6,"00:56:40",1
"17/09/06","01:10",0.0,21.3,95.5,1003.6,316.9,0.5,1.1,353.1,0.00,20.6,23.5,"01:06:16",1
"17/09/06","01:20",0.0,21.4,95.5,1003.8,314.8,0.6,1.2,326.0,0.00,20.7,23.5,"01:10:24",1
"17/09/06","01:30",0.0,21.3,95.5,1003.4,306.7,0.6,1.3,334.1,0.00,20.6,23.5,"01:24:32",1
"17/09/06","01:40",0.0,21.3,95.5,1003.4,292.1,0.7,1.8,322.8,0.00,20.6,23.4,"01:35:12",1
"17/09/06","01:50",0.0,21.3,95.5,1003.4,296.6,0.3,0.8,313.8,0.00,20.6,23.7,"01:48:48",1
"17/09/06","02:00",0.0,21.3,95.6,1003.1,312.6,0.6,1.7,332.8,0.00,20.6,23.5,"01:53:52",1
"17/09/06","02:10",0.0,21.3,95.6,1003.1,315.9,0.6,0.9,342.6,0.00,20.6,23.6,"02:04:56",1
"17/09/06","02:20",0.0,21.3,95.7,1002.9,308.2,0.6,1.0,341.7,0.00,20.6,23.5,"02:17:20",1
"17/09/06","02:30",0.0,21.3,95.7,1003.1,298.9,0.5,1.0,318.0,0.00,20.6,23.4,"02:20:56",1
"17/09/06","02:40",0.0,21.3,95.7,1003.1,283.6,0.3,0.8,328.7,0.00,20.6,23.5,"02:39:44",1
"17/09/06","02:50",0.0,21.3,95.7,1002.6,277.9,0.5,1.1,324.0,0.00,20.6,23.2,"02:40:24",1
"17/09/06","03:00",0.0,21.3,95.7,1002.4,287.1,0.5,0.8,300.9,0.00,20.6,23.4,"02:55:28",1
"17/09/06","03:10",0.0,21.3,95.8,1002.4,279.6,0.5,1.1,327.3,0.00,20.6,23.3,"03:08:56",1
"17/09/06","03:20",0.0,21.3,95.8,1002.9,283.3,0.5,0.9,302.5,0.00,20.6,23.4,"03:18:40",1
"17/09/06","03:30",0.0,21.3,95.8,1002.4,283.4,0.5,1.0,326.2,0.00,20.6,23.4,"03:20:02",1
"17/09/06","03:40",0.0,21.3,95.8,1002.6,297.0,0.6,1.1,336.7,0.00,20.6,23.5,"03:30:32",1
"17/09/06","03:50",0.0,21.3,95.8,1002.6,299.8,0.6,1.2,317.0,0.00,20.6,23.4,"03:42:32",1
"17/09/06","04:00",0.0,21.3,95.9,1002.6,278.2,0.5,1.0,300.0,0.00,20.7,23.4,"03:55:20",1
"17/09/06","04:10",0.0,21.3,95.9,1002.4,274.8,0.6,1.0,304.3,0.00,20.7,23.4,"04:08:32",1
"17/09/06","04:20",0.0,21.3,95.9,1002.2,309.6,0.6,1.0,305.3,0.00,20.7,23.1,"04:11:04",1
"17/09/06","04:30",0.0,21.4,96.0,1002.4,311.6,0.6,0.9,310.0,0.00,20.8,23.4,"04:28:48",1
"17/09/06","04:40",0.0,21.3,95.9,1002.2,282.7,0.6,1.4,321.4,0.00,20.7,23.3,"04:31:04",1
"17/09/06","04:50",0.0,21.3,95.9,1002.2,286.8,0.3,1.1,318.5,0.00,20.7,23.3,"04:41:12",1
"17/09/06","05:00",0.0,21.3,95.9,1001.9,258.4,0.5,0.8,244.6,0.00,20.7,23.1,"04:52:08",1
"17/09/06","05:10",0.0,21.3,95.8,1001.9,286.3,0.5,1.0,323.2,0.00,20.6,23.2,"05:02:40",1
"17/09/06","05:20",0.0,21.3,96.0,1002.2,294.1,0.3,0.6,273.9,0.00,20.7,23.2,"05:10:32",1
"17/09/06","05:30",0.0,21.4,96.0,1001.9,317.6,0.5,1.4,337.8,0.00,20.8,23.2,"05:25:20",1
"17/09/06","05:40",0.0,21.4,95.9,1001.9,280.7,0.1,0.4,267.9,0.00,20.8,23.3,"05:35:44",1
"17/09/06","05:50",0.0,21.4,95.9,1002.2,299.7,0.3,0.8,308.5,0.00,20.8,23.1,"05:46:56",1
"17/09/06","06:00",0.0,21.5,96.0,1002.4,340.9,0.6,1.0,342.3,0.00,20.9,23.3,"05:51:36",1
"17/09/06","06:10",0.0,21.5,96.0,1002.2,300.5,0.2,0.9,336.1,0.00,20.9,23.5,"06:00:08",1
"17/09/06","06:20",0.2,21.7,96.1,1002.4,265.8,0.2,0.8,323.3,0.00,21.1,23.4,"06:19:12",1
"17/09/06","06:30",0.0,21.7,96.0,1002.4,292.2,0.3,0.6,309.6,0.00,21.1,23.2,"06:21:04",1
"17/09/06","06:40",0.0,21.8,96.0,1002.2,333.9,0.5,0.9,322.1,0.00,21.2,23.3,"06:38:32",1
"17/09/06","06:50",0.0,21.8,96.0,1002.2,325.7,0.6,1.0,341.9,0.01,21.2,23.6,"06:40:40",1
"17/09/06","07:00",0.0,22.0,96.0,1002.4,297.8,0.5,0.8,324.7,0.01,21.4,23.2,"06:59:12",1
"17/09/06","07:10",0.0,22.0,95.9,1002.2,335.0,0.5,1.2,338.8,0.01,21.4,23.2,"07:06:52",1
"17/09/06","07:20",0.0,22.0,95.7,1001.9,313.2,0.6,0.8,320.2,0.01,21.3,23.4,"07:10:40",1
"17/09/06","07:30",0.0,22.1,95.7,1001.7,286.8,0.3,0.6,279.6,0.01,21.4,23.3,"07:20:32",1
"17/09/06","07:40",0.0,22.2,95.7,1001.9,284.5,0.5,0.6,273.3,0.01,21.5,23.2,"07:33:04",1
"17/09/06","07:50",0.0,22.2,95.6,1002.2,319.1,0.8,1.8,336.8,0.02,21.5,23.5,"07:44:08",1
"17/09/06","08:00",0.0,22.4,95.6,1001.9,325.4,0.7,1.6,331.4,0.02,21.7,23.6,"07:50:16",1
"17/09/06","08:10",0.0,22.5,95.5,1002.2,299.7,0.6,1.1,344.8,0.02,21.8,23.4,"08:06:24",1
"17/09/06","08:20",0.0,22.7,95.3,1002.2,324.4,0.6,1.1,319.0,0.04,21.9,23.6,"08:19:28",1
"17/09/06","08:30",0.0,22.9,95.4,1002.6,316.8,1.0,1.4,332.6,0.04,22.2,23.6,"08:22:24",1
"17/09/06","08:40",0.0,23.1,94.8,1002.4,305.0,1.0,1.4,323.7,0.04,22.3,23.5,"08:34:56",1
"17/09/06","08:50",0.0,23.2,94.5,1002.4,292.8,0.7,1.4,322.4,0.06,22.3,23.7,"08:40:08",1
"17/09/06","09:00",0.0,23.4,93.8,1001.9,285.7,1.0,1.7,244.8,0.08,22.4,23.8,"08:59:52",1
"17/09/06","09:10",0.0,23.6,90.9,1002.6,258.0,0.7,1.3,242.5,0.13,22.1,23.8,"09:02:24",1
"17/09/06","09:20",0.0,24.6,86.9,1002.2,253.1,0.8,1.7,254.1,0.22,22.3,24.0,"09:14:32",1
"17/09/06","09:30",0.0,25.5,82.6,1001.9,325.8,0.6,1.3,314.4,0.29,22.4,24.0,"09:21:12",1
"17/09/06","09:40",0.0,25.3,84.0,1002.2,324.3,0.6,1.2,349.2,0.17,22.4,24.2,"09:35:20",1
"17/09/06","09:50",0.0,25.5,81.9,1001.9,324.4,0.5,1.7,99.9,0.19,22.2,24.4,"09:40:02",1
"17/09/06","10:00",0.0,25.2,82.8,1001.9,107.7,0.3,1.4,234.6,0.09,22.1,24.5,"09:59:20",1
"17/09/06","10:10",0.0,24.9,83.6,1001.5,231.3,0.8,2.2,149.4,0.08,22.0,24.5,"10:07:04",1
"17/09/06","10:20",0.0,25.2,82.8,1001.5,259.9,0.3,1.4,249.0,0.12,22.1,24.5,"10:16:56",1
"17/09/06","10:30",0.0,25.8,81.0,1001.5,234.5,0.5,1.2,189.7,0.21,22.3,24.7,"10:22:32",1
"17/09/06","10:40",0.0,26.6,77.7,1001.0,149.6,0.3,1.0,123.0,0.28,22.4,24.7,"10:32:00",1
"17/09/06","10:50",0.0,26.5,77.8,1001.0,61.6,0.3,1.1,64.2,0.19,22.3,24.9,"10:41:36",1
"17/09/06","11:00",0.0,26.6,78.9,1001.0,33.0,0.5,1.2,89.8,0.22,22.7,24.9,"10:50:32",1
"17/09/06","11:10",0.0,26.5,77.4,1000.8,332.8,0.6,1.6,0.7,0.23,22.3,25.3,"11:01:28",1
"17/09/06","11:20",0.0,25.9,78.5,1000.5,202.5,1.3,2.5,210.7,0.19,21.9,25.2,"11:17:28",1
"17/09/06","11:30",0.0,26.0,79.0,1000.3,241.3,1.1,2.4,229.9,0.21,22.1,25.3,"11:26:16",1
"17/09/06","11:40",0.0,26.4,77.6,999.8,187.7,1.3,3.3,226.9,0.26,22.2,25.4,"11:33:20",1
"17/09/06","11:50",0.0,26.8,78.5,1000.0,249.4,0.6,1.8,220.8,0.22,22.8,25.6,"11:47:28",1
"17/09/06","12:00",0.0,26.3,78.7,999.3,187.9,1.2,2.1,209.2,0.17,22.3,25.6,"11:56:08",1
"17/09/06","12:10",0.0,26.5,77.6,999.3,201.0,1.3,2.5,207.3,0.22,22.3,25.4,"12:06:32",1
"17/09/06","12:20",0.0,26.8,76.9,999.1,215.0,1.5,3.2,236.0,0.26,22.4,25.6,"12:11:04",1
"17/09/06","12:30",0.0,26.4,78.5,999.3,201.0,1.8,3.5,205.3,0.20,22.4,26.0,"12:22:56",1
"17/09/06","12:40",0.0,26.3,78.8,999.8,210.3,1.5,2.6,207.7,0.15,22.4,25.7,"12:37:20",1
"17/09/06","12:50",0.0,26.3,80.4,999.3,207.9,1.1,3.3,236.2,0.14,22.7,25.8,"12:48:24",1
"17/09/06","13:00",0.0,27.2,75.7,999.1,200.0,1.2,3.2,197.1,0.30,22.6,26.2,"12:59:36",1
"17/09/06","13:10",0.0,26.8,77.6,998.4,202.0,1.2,2.6,231.2,0.20,22.6,26.1,"13:05:28",1
"17/09/06","13:20",0.0,26.9,77.1,999.1,175.7,1.5,3.2,162.0,0.23,22.6,26.1,"13:13:04",1
"17/09/06","13:30",0.0,26.4,78.1,999.6,194.2,1.8,2.8,231.6,0.09,22.3,26.1,"13:21:44",1
"17/09/06","13:40",0.0,26.2,80.0,999.1,219.9,1.5,2.9,217.9,0.05,22.5,26.0,"13:30:32",1
"17/09/06","13:50",0.0,26.1,79.7,998.6,219.8,1.1,3.3,224.8,0.09,22.4,26.0,"13:42:08",1
"17/09/06","14:00",0.0,26.2,79.8,998.9,238.4,1.1,2.0,231.7,0.06,22.5,26.0,"13:52:32",1
"17/09/06","14:10",0.0,26.1,80.4,998.9,230.6,1.0,2.2,224.4,0.03,22.5,25.7,"14:07:04",1
"17/09/06","14:20",0.0,26.1,79.9,998.9,239.1,0.5,1.2,207.8,0.05,22.4,25.7,"14:12:08",1
"17/09/06","14:30",0.0,26.4,79.0,998.9,216.1,0.2,0.9,232.4,0.08,22.5,25.7,"14:21:04",1
"17/09/06","14:40",0.0,27.1,77.3,998.6,245.2,0.3,1.4,1.0,0.14,22.8,25.8,"14:39:28",1
"17/09/06","14:50",0.0,26.9,78.0,998.9,350.0,1.0,1.7,344.3,0.10,22.8,25.9,"14:43:12",1
"17/09/06","15:00",0.0,27.2,78.4,998.9,103.3,0.2,0.8,337.1,0.11,23.2,26.1,"14:50:08",1
"17/09/06","15:10",0.0,27.4,76.3,998.4,339.3,0.2,1.1,334.1,0.10,22.9,26.0,"15:09:52",1
"17/09/06","15:20",0.0,27.4,77.3,998.9,342.5,0.8,1.8,347.1,0.12,23.1,25.9,"15:12:16",1
"17/09/06","15:30",0.0,27.3,76.4,998.9,4.6,0.8,1.9,338.5,0.11,22.8,26.1,"15:26:08",1
"17/09/06","15:40",0.0,27.4,76.2,998.4,24.4,0.5,1.2,11.1,0.11,22.9,26.0,"15:39:28",1
"17/09/06","15:50",0.0,27.4,77.4,998.9,116.1,0.5,1.2,138.5,0.04,23.1,26.0,"15:41:44",1
"17/09/06","16:00",0.0,27.0,77.5,998.9,279.3,0.6,1.4,329.1,0.01,22.8,26.0,"15:54:48",1
"17/09/06","16:10",0.0,26.8,78.1,999.1,279.0,0.7,1.7,294.9,0.01,22.7,25.9,"16:01:04",1
"17/09/06","16:20",0.0,26.8,78.4,998.9,284.7,0.7,1.3,293.8,0.02,22.8,26.0,"16:12:24",1
"17/09/06","16:30",0.0,26.9,79.0,998.9,293.8,1.1,2.6,232.2,0.04,23.0,25.8,"16:23:04",1
"17/09/06","16:40",0.0,26.9,78.8,999.1,324.1,1.2,2.1,4.6,0.04,22.9,25.8,"16:37:20",1
"17/09/06","16:50",0.0,26.7,79.0,999.1,337.8,1.6,2.8,343.4,0.02,22.8,25.9,"16:42:48",1
"17/09/06","17:00",0.0,26.4,79.8,999.1,299.7,1.2,2.9,330.1,0.00,22.7,25.8,"16:50:16",1
"17/09/06","17:10",0.0,26.3,80.1,999.1,281.7,0.7,1.7,307.5,0.01,22.6,25.6,"17:02:48",1
"17/09/06","17:20",0.0,26.5,80.9,999.1,324.6,0.6,1.3,333.8,0.03,23.0,25.8,"17:16:16",1
"17/09/06","17:30",0.0,26.6,80.1,999.3,254.3,0.5,1.4,236.5,0.02,22.9,25.8,"17:28:00",1
"17/09/06","17:40",0.0,26.5,79.7,999.1,291.0,0.6,1.1,307.1,0.00,22.7,25.6,"17:32:40",1
"17/09/06","17:50",0.0,26.4,80.3,999.3,295.8,0.6,1.4,338.6,0.00,22.8,25.7,"17:40:02",1
"17/09/06","18:00",0.0,26.3,81.0,999.8,329.7,0.8,1.4,333.1,0.00,22.8,25.5,"17:51:20",1
"17/09/06","18:10",0.0,26.1,81.0,999.8,331.1,0.7,2.0,324.6,0.00,22.6,25.7,"18:09:52",1
"17/09/06","18:20",0.0,25.9,82.0,999.8,317.8,1.0,2.2,345.3,0.00,22.6,25.5,"18:19:44",1
"17/09/06","18:30",0.0,25.7,83.4,1000.0,326.2,0.7,1.2,341.5,0.00,22.7,25.4,"18:21:04",1
"17/09/06","18:40",0.0,25.4,84.6,999.8,301.1,0.6,1.6,349.5,0.00,22.7,25.2,"18:38:00",1
"17/09/06","18:50",0.0,25.2,85.6,999.8,327.5,1.0,1.8,334.1,0.00,22.7,25.5,"18:47:44",1
"17/09/06","19:00",0.0,25.0,86.3,1000.5,327.5,1.2,2.0,334.7,0.00,22.6,25.3,"18:54:16",1
"17/09/06","19:10",0.0,24.9,86.7,1000.3,312.7,0.7,1.7,341.8,0.00,22.6,25.2,"19:09:28",1
"17/09/06","19:20",0.0,24.8,87.1,1000.8,315.2,1.1,2.0,333.0,0.00,22.5,25.2,"19:11:36",1
"17/09/06","19:30",0.0,24.8,87.3,1000.3,306.8,0.6,1.0,294.4,0.00,22.6,25.1,"19:26:40",1
"17/09/06","19:40",0.0,24.7,87.5,1000.8,280.7,0.6,0.9,275.1,0.00,22.5,25.2,"19:35:52",1
"17/09/06","19:50",0.0,24.6,87.9,1001.2,288.8,0.6,1.1,312.1,0.00,22.5,25.1,"19:43:52",1
"17/09/06","20:00",0.0,24.5,88.3,1001.0,281.8,0.3,1.2,323.1,0.00,22.5,25.0,"19:54:40",1
"17/09/06","20:10",0.0,24.3,88.8,1001.7,308.2,0.8,1.1,313.8,0.00,22.4,24.9,"20:03:52",1
"17/09/06","20:20",0.0,24.2,89.1,1001.5,286.7,0.7,1.3,319.4,0.00,22.3,25.0,"20:18:40",1
"17/09/06","20:30",0.0,24.1,89.5,1001.5,306.8,0.7,1.2,312.3,0.00,22.3,25.0,"20:21:28",1
"17/09/06","20:40",0.0,24.1,89.7,1001.7,318.9,0.6,1.2,10.0,0.00,22.3,24.9,"20:36:08",1
"17/09/06","20:50",0.0,24.1,90.0,1001.2,318.5,0.7,1.1,333.9,0.00,22.4,25.0,"20:42:32",1
"17/09/06","21:00",0.0,24.0,90.4,1001.7,291.8,0.7,1.2,319.4,0.00,22.4,24.7,"20:57:28",1
"17/09/06","21:10",0.0,23.9,90.7,1001.5,284.5,0.7,1.1,315.1,0.00,22.3,24.7,"21:09:44",1
"17/09/06","21:20",0.0,23.9,90.8,1001.5,304.1,0.8,1.3,305.0,0.00,22.3,24.9,"21:11:44",1
"17/09/06","21:30",0.0,23.9,90.8,1001.2,308.1,1.1,2.0,341.1,0.00,22.3,24.8,"21:21:36",1
"17/09/06","21:40",0.0,23.9,90.8,1001.0,313.0,0.6,1.4,320.9,0.00,22.3,24.8,"21:31:44",1
"17/09/06","21:50",0.0,24.0,90.9,1001.0,286.5,0.3,1.0,327.5,0.00,22.5,24.7,"21:41:28",1
"17/09/06","22:00",0.0,23.9,90.9,1001.5,359.9,0.5,1.4,329.2,0.00,22.4,24.7,"21:59:12",1
"17/09/06","22:10",0.0,23.9,90.9,1001.5,309.7,0.7,1.1,332.0,0.00,22.4,24.8,"22:00:08",1
"17/09/06","22:20",0.0,24.0,91.1,1001.5,336.8,0.7,1.4,322.1,0.00,22.5,24.9,"22:13:20",1
"17/09/06","22:30",0.0,23.9,91.1,1001.2,326.4,0.8,1.3,329.3,0.00,22.4,24.6,"22:22:16",1
"17/09/06","22:40",0.0,23.9,91.2,1001.2,299.2,0.8,1.2,309.9,0.00,22.4,24.7,"22:38:00",1
"17/09/06","22:50",0.0,23.9,91.4,1001.5,305.1,0.3,0.9,328.0,0.00,22.5,24.7,"22:46:32",1
"17/09/06","23:00",0.0,23.9,91.5,1001.5,270.5,0.6,1.1,318.5,0.00,22.5,24.6,"22:59:28",1
"17/09/06","23:10",0.0,23.8,91.6,1001.2,306.0,0.5,1.3,332.1,0.00,22.4,24.6,"23:00:24",1
"17/09/06","23:20",0.0,23.9,91.8,1001.5,328.3,1.0,1.6,319.0,0.00,22.5,24.5,"23:12:24",1
"17/09/06","23:30",0.0,23.8,91.8,1001.2,327.2,1.0,1.3,335.2,0.00,22.4,24.7,"23:20:08",1
"17/09/06","23:40",0.0,23.7,91.9,1001.0,299.3,0.7,1.4,325.2,0.00,22.3,24.4,"23:31:44",1
"17/09/06","23:50",0.0,23.6,92.0,1001.0,286.8,0.6,0.9,306.2,0.00,22.3,24.7,"23:45:04",1
"17/09/06","24:00",0.0,23.6,92.0,1001.0,293.3,0.8,1.1,306.5,0.00,22.3,24.5,"23:54:48",1
